Regional Weather Roundup
Issued by NWS

Home | Current Version | Previous Version | Text Only | Print | Product List | Glossary Off
Versions: 1 2 3 4 5 6 7 8 9 10 11 12 13 14 15 16 17 18 19 20 21 22 23 24 25 26 27 28 29 30 31 32 33 34 35 36 37 38 39 40 41 42 43 44 45 46 47 48 49 50

000
ASUS43 KLMK 190810
RWRKY
NATIONAL WEATHER SERVICE LOUISVILLE KY
300 AM EST SUN NOV 19 2017

NOTE "FAIR" INDICATES FEW OR NO CLOUDS BELOW 12,000 FEET
WITH NO SIGNIFICANT WEATHER AND/OR OBSTRUCTIONS TO VISIBILITY.

KYZ001>023-026-027-061>063-070>075-190900-
WESTERN AND SOUTH CENTRAL KENTUCKY

CITY           SKY/WX    TMP DP  RH WIND       PRES   REMARKS
PADUCAH        CLEAR     41  31  67 NW6       30.05R
HENDERSON      CLOUDY    40  32  73 NW18G25   30.03R WCI  31
OWENSBORO      CLOUDY    41  34  76 NW16      30.00R
HOPKINSVILLE   CLOUDY    42  33  71 NW10      30.02R
BOWLING GREEN  CLOUDY    43  33  68 NW8G23    30.00R
GLASGOW        CLOUDY    42  35  78 W9        29.97R
$$

KYZ024-025-028>034-038-045-046-053-190900-
NORTH CENTRAL KENTUCKY

CITY           SKY/WX    TMP DP  RH WIND       PRES   REMARKS
LOUISVILLE/SDF CLOUDY    42  30  62 NW13G22   29.95R
LOUISVILLE/LOU CLOUDY    41  31  67 NW15G25   29.95R
FORT KNOX      CLOUDY    40  32  73 NW16      29.93R WCI  31
$$

KYZ035>037-039>044-047>052-055>060-089>105-190900-
NORTHEAST KENTUCKY

CITY           SKY/WX    TMP DP  RH WIND       PRES   REMARKS
LEXINGTON      CLOUDY    41  34  76 W13G25    29.90R
COVINGTON      CLOUDY    39  35  86 W16       29.85R WCI  30
FRANKFORT      CLOUDY    40  31  70 NW8G17    29.90R WCI  34
$$

KYZ054-064>069-076>088-106>120-190900-
SOUTHEAST KENTUCKY

CITY           SKY/WX    TMP DP  RH WIND       PRES   REMARKS
JACKSON        LGT RAIN  39  38  96 W10G20    29.86R FOG     WCI  32
LONDON         LGT RAIN  39  37  92 W10       29.92R WCI  32
SOMERSET       CLOUDY    37  37 100 W3        29.95R
MIDDLESBORO    LGT RAIN  40  38  92 NW6       29.92R
MONTICELLO     CLOUDY    41  37  86 NW12      29.96R
$$





USA.gov is the U.S. government's official web portal to all federal, state and local government web resources and services.